SCP
-0 -0 -0 0 -0 -0 -0 -0 0 0 0 0 0 0 0 0 0 0 0 0 -0 -0 -0 -0 0 0 -0 0 0 -0 -0 -0 -0 -0 -0 -0 -0 -0 -0 -0 -0 -0 -0 -0 -0 -0 -0 -0 -0
0 0 0 -0 -0 -0 -0 0 0 0 0 0 0 0 0 0 0 0 0 -0 -0 -0 0 -0 0 -0 -0 0 -0 -0 -0 0 -0 -0 -0 -0 -0 -0 -0 -0 -0 -0 -0 -0 -0 -0 -0 -0 -0
0 0 0 -0 -0 -0 -0 0 0 0 0 0 0 0 0 0 0 0 0 -0 -0 -0 -0 -0 -0 -0 0 -0 -0 -0 -0 -0 -0 -0 -0 -0 -0 -0 -0 -0 -0 -0 -0 -0 -0 -0 -0 -0 -0
0 0 0 -0 -0 -0 0 0 0 0 0 0 0 0 0 0 0 0 0 -0 -0 -0 -0 -0 0 -0 -0 0 -0 -0 -0 -0 -0 -0 -0 -0 -0 -0 -0 -0 -0 -0 -0 -0 -0 -0 -0 -0 -0
0 0 0 -0 -0 0 0 0 0 0 0 0 0 0 0 0 -0 -0 0 0 0 0 0 0 0 0 0 0 0 0 0 -0 -0 -0 -0 -0 -0 -0 -0 -0 -0 -0 -0 -0 -0 -0 -0 -0 -0
0 0 -0 -0 -0 0 0 0 0 0 0 0 0 0 0 0 0 0 0 0 0 0 0 0 0 0 0 0 -0 -0 -0 -0 -0 -0 -0 -0 -0 -0 -0 -0 -0 -0 -0 -0 -0 -0 -0 -0 -0
0 0 -0 0 0 0 0 0 0 0 0 0 0 0 0 0 0 0 0 0 0 0 0 0 0 0 0 0 0 -0 -0 -0 -0 -0 -0 -0 -0 -0 -0 -0 -0 -0 -0 -0 -0 -0 -0 -0 -0
0 0 0 0 0 0 -0 0 -0 0 0 0 0 0 0 0 0 0 0 0 0 0 0 0 0 0 0 0 0 -0 -0 -0 -0 -0 -0 -0 -0 -0 -0 -0 -0 -0 -0 -0 -0 0 0 0 0
0 0 0 0 0 0 -0 -0 -0 0 -0 0 0 0 0 -0 -0 -0 0 0 0 0 -0 -0 -0 -0 -0 -0 -0 -0 -0 -0 -0 -0 -0 -0 -0 -0 0 0 0 0 0 0 0 0 0 0 0
0 0 0 0 0 0 0 0 0 0 0 0 0 0 -0 -0 -0 -0 -0 -0 -0 -0 -0 -0 -0 -0 -0 -0 -0 -0 -0 -0 -0 -0 -0 -0 0 0 0 0 0 0 0 0 0 0 0 0 0
0 0 0 0 0 0 0 0 0 -0 0 0 0 0 0 -0 -0 -0 -0 -0 -0 -0 -0 -0 -0 -0 -0 -0 -0 -0 -0 -0 -0 -0 -0 -0 0 0 0 0 0 0 0 0 0 0 0 0 0
0 0 0 0 0 0 0 0 0 0 -0 0 -0 0 -0 -0 -0 -0 -0 -0 -0 -0 -0 -0 -0 -0 -0 -0 -0 -0 -0 0 0 0 -0 0 0 0 0 0 0 0 0 0 0 0 0 0 0
0 0 0 0 0 0 0 0 0 -0 -0 0 -0 -0 -0 -0 -0 -0 -0 -0 -0 -0 -0 -0 -0 -0 -0 -0 -0 -0 -0 -0 0 0 0 0 0 0 0 0 0 0 0 0 0 0 0 0 0
0 0 0 0 0 0 0 0 0 0 0 0 0 -0 -0 -0 -0 0 -0 -0 -0 -0 -0 -0 -0 -0 -0 -0 -0 -0 -0 -0 0 0 0 0 0 0 0 0 0 0 0 0 0 0 0 0 0
0 0 0 0 0 0 0 0 0 0 0 0 0 0 0 -0 0 -0 -0 -0 -0 -0 0 -0 -0 -0 -0 -0 -0 -0 -0 0 0 0 0 0 0 0 0 0 0 0 0 0 0 0 0 0 0
0 0 0 0 0 0 0 0 0 0 0 0 0 0 0 0 0 0 0 0 0 0 0 0 0 0 -0 -0 -0 0 0 0 0 0 0 0 0 0 0 0 0 0 0 0 0 0 0 0 0
0 0 0 0 0 0 0 0 0 0 0 0 0 0 0 -0 -0 0 0 0 0 0 0 0 0 0 0 0 0 0 0 0 0 0 0 0 0 0 0 0 0 0 0 0 0 0 0 0 0
0 0 0 0 0 0 0 0 0 0 0 0 0 0 0 0 -0 0 0 0 0 0 0 0 0 0 0 0 0 0 0 0 0 0 0 0 0 0 0 0 0 0 0 0 0 0 0 0 0
0 0 0 0 0 0 0 0 0 0 0 0 0 0 0 0 0 0 0 0 0 0 0 0 0 0 0 0 0 0 0 0 0 0 0 0 0 0 0 0 0 0 0 0 0 0 0 0 0
0 0 0 0 0 0 0 0 0 0 0 0 0 0 0 0 0 0 0 0 0 0 0 0 0 0 0 0 0 0 0 0 0 0 0 0 0 0 0 0 0 0 0 0 0 0 0 0 0
0 0 0 0 0 0 0 0 0 0 0 0 0 0 0 0 0 0 0 0 0 0 0 0 0 0 0 0 0 0 0 0 0 0 0 0 0 0 0 0 0 0 0 0 0 0 0 0 0
0 0 0 0 0 0 0 0 0 0 0 0 0 0 0 0 0 0 0 0 0 0 0 0 0 0 0 0 0 0 0 0 0 0 0 0 0 0 0 0 0 0 0 0 0 0 0 0 0
0 0 0 0 0 0 0 0 0 0 0 0 0 0 0 0 0 0 0 0 0 0 0 0 0 0 0 0 0 0 0 0 0 0 0 0 0 0 0 0 0 0 0 0 0 0 0 0 0
0 0 0 0 0 0 0 0 0 0 0 0 0 0 0 0 0 0 0 0 0 0 0 0 0 0 0 0 0 0 0 0 0 0 0 0 0 0 0 0 0 0 0 0 0 0 0 0 0
0 0 0 0 0 0 0 0 0 0 0 0 0 0 0 0 0 0 0 0 0 0 0 0 0 0 0 0 0 0 0 0 0 0 0 0 0 0 0 0 0 0 0 0 0 0 0 0 0
0 0 0 0 0 0 0 0 0 0 0 0 0 0 0 0 0 0 0 0 0 0 0 0 0 0 0 0 0 0 0 0 0 0 0 0 0 0 0 0 0 0 0 0 0 0 0 0 0
0 0 0 0 0 0 0 0 0 0 0 0 0 0 0 0 0 0 0 0 0 0 0 0 0 0 0 0 0 0 0 0 0 0 0 0 0 0 0 0 0 0 0 0 0 0 0 0 0
0 0 0 0 0 0 0 0 0 0 0 0 0 0 0 0 0 0 0 0 0 0 0 0 0 0 0 0 0 0 0 0 0 0 0 0 0 0 0 0 0 0 0 0 0 0 0 0 0
0 0 0 0 0 0 0 0 0 0 0 0 0 0 0 0 0 0 0 0 0 0 0 0 0 0 0 0 0 0 0 0 0 0 0 0 0 0 0 0 0 0 0 0 0 0 0 0 0
0 0 0 0 0 0 0 0 0 0 0 0 0 0 0 0 0 0 0 0 0 0 0 0 0 0 0 0 0 0 0 0 0 0 0 0 0 0 0 0 0 0 0 0 0 0 0 0 0
Wind_Speed_500mb
14 9 9 6 8 10 1 6 1 5 1 3 12 7 9 5 7 6 27 30 49 47 41 26 23 20 18 18 18 17 16 16 18 24 19 16 13 13 16 20 22 24 29 30 33 31 32 31 32
10 6 6 6 9 6 9 6 8 9 9 29 21 14 5 1 7 21 42 37 51 45 33 36 32 22 17 17 19 19 21 23 27 25 19 13 12 12 15 20 23 25 33 34 30 27 28 30 29
10 10 4 8 7 8 9 8 9 7 32 5 7 7 7 3 8 41 35 51 53 41 42 36 29 23 21 20 21 20 22 24 29 28 18 12 13 10 14 18 25 27 27 31 28 28 27 30 35
11 7 10 8 5 5 6 7 11 13 8 2 9 8 7 1 20 30 45 52 51 45 40 36 28 21 20 19 19 18 19 21 21 22 14 9 10 11 13 14 20 24 22 27 26 23 29 31 29
14 4 8 6 4 5 4 5 23 7 2 5 4 7 4 18 26 28 48 51 51 45 42 35 27 22 19 18 17 17 18 19 19 14 9 9 11 12 12 10 12 16 15 29 20 25 23 28 27
5 5 9 2 5 8 4 13 13 8 4 8 3 11 10 20 29 39 47 47 45 42 38 34 31 26 21 19 18 18 18 17 17 17 13 11 11 11 10 10 9 7 13 24 20 15 14 14 18
10 8 9 8 3 3 7 19 8 10 9 8 9 8 8 26 29 40 45 43 40 37 35 34 32 30 24 19 16 17 16 15 14 14 12 10 9 10 9 9 9 7 9 20 14 12 12 11 11
7 10 6 4 7 7 13 20 5 14 10 8 14 5 5 34 34 41 42 43 40 38 35 34 33 32 27 23 19 17 16 14 13 12 10 9 8 9 9 9 8 7 9 14 9 9 7 6 4
7 9 4 10 12 5 17 9 11 7 11 12 17 10 5 40 39 44 46 47 44 43 38 36 35 33 30 27 22 20 19 18 16 13 11 8 6 7 7 7 6 7 6 6 7 5 5 4 4
8 8 15 8 7 8 20 7 19 10 8 12 14 17 12 39 45 49 54 53 51 51 46 43 40 37 35 32 28 24 22 19 17 14 10 7 5 4 5 6 5 5 4 2 3 3 3 2 2
6 10 9 6 4 13 19 6 12 12 5 20 25 23 20 40 45 47 50 52 52 50 49 47 44 40 38 37 33 32 27 23 21 20 16 14 12 9 7 6 6 6 3 1 1 1 2 3 4
8 6 11 10 6 9 15 10 8 20 12 4 15 19 25 36 41 44 47 49 48 49 48 44 43 41 41 42 41 38 35 31 29 25 23 20 16 15 14 13 11 9 5 5 3 2 2 4 6
5 7 10 9 5 8 7 4 8 20 23 17 10 21 30 33 35 37 38 42 44 47 45 44 42 42 43 46 46 44 41 36 32 31 30 28 25 22 21 18 17 14 11 9 7 2 2 5 7
9 11 8 7 2 3 3 2 0 6 7 26 22 16 31 34 33 37 42 45 47 46 49 46 45 42 40 41 46 48 46 41 41 40 38 35 31 29 27 21 23 20 16 15 15 14 11 11 14
16 9 5 1 2 2 2 8 14 17 14 9 27 23 27 33 41 44 37 40 45 46 49 51 52 50 48 44 40 45 48 48 47 47 44 42 38 35 34 30 24 26 24 22 19 19 19 20 23
11 10 6 1 9 1 5 15 5 6 6 12 17 22 34 35 40 43 45 47 46 51 54 54 56 58 58 55 50 46 45 47 45 42 42 42 42 42 42 39 36 35 34 35 35 31 29 29 32
13 6 7 3 7 4 4 11 6 8 2 11 10 16 25 31 38 38 41 45 50 51 53 56 61 62 63 63 61 57 52 51 51 49 46 46 46 47 48 46 45 45 44 46 48 46 43 41 39
10 6 5 5 4 4 2 17 15 21 25 32 29 23 28 33 38 32 39 43 47 53 56 57 60 65 66 66 70 67 65 63 62 62 60 55 54 54 55 54 52 51 54 53 54 57 58 55 52
14 9 7 3 1 6 10 12 22 42 32 39 42 38 39 44 43 42 46 46 48 48 56 60 60 61 68 72 74 79 77 72 71 70 69 68 64 62 63 62 61 60 59 60 60 65 69 68 66
10 9 5 3 6 3 9 18 18 27 29 32 39 36 25 24 29 22 18 35 46 43 45 51 57 61 64 70 73 79 78 79 74 73 73 73 71 71 69 69 69 67 69 66 66 72 73 74 75
4 10 7 5 4 7 10 14 12 7 10 24 17 17 16 19 15 10 6 2 10 30 38 41 44 55 65 69 75 80 84 85 83 82 81 81 79 78 77 76 73 74 75 80 77 77 80 81 79
9 11 9 11 7 4 7 8 12 9 16 15 32 31 31 32 31 29 27 27 25 17 6 21 33 40 47 60 75 79 82 85 78 79 79 82 83 83 83 82 81 79 77 77 78 79 84 90 88
7 8 11 7 10 7 7 5 14 10 9 13 26 34 40 42 44 43 39 36 33 28 23 20 11 9 22 37 50 64 75 81 82 82 81 79 78 77 81 81 79 81 79 81 82 84 89 92 93
18 13 14 10 7 2 5 8 11 2 6 5 14 35 44 57 64 66 62 58 59 54 49 41 32 22 15 11 17 32 45 56 67 74 78 78 77 75 71 69 73 78 81 84 89 89 92 90 91
8 11 4 5 5 9 2 4 13 7 3 5 11 31 40 48 57 58 54 51 49 50 50 51 50 46 38 26 17 17 23 33 45 53 61 66 69 72 71 67 68 75 78 78 80 85 88 91 95
11 12 10 13 8 5 5 11 8 4 7 18 28 42 46 46 45 44 44 42 42 39 37 38 39 38 37 37 34 27 23 28 35 42 48 54 59 61 60 62 63 66 70 74 78 87 86 89 93
10 8 9 14 6 7 7 8 3 4 11 22 28 36 38 37 36 36 35 35 35 35 36 37 34 32 32 30 30 29 26 23 24 28 36 42 45 49 51 53 57 59 63 67 71 80 88 92 95
8 16 8 5 7 6 6 10 11 9 9 4 17 24 27 29 31 30 26 26 28 28 28 27 30 32 31 30 30 32 32 31 27 24 23 28 32 37 41 45 50 53 57 61 67 73 79 86 92
6 5 9 9 8 10 6 11 14 22 14 13 15 18 19 20 22 24 25 27 28 26 25 24 24 25 27 29 32 33 34 36 38 39 40 42 43 44 46 48 50 53 56 59 64 72 77 84 87
2 12 13 10 9 2 6 8 15 19 22 19 14 13 16 18 17 18 20 24 28 31 31 33 32 34 38 39 39 40 41 43 45 47 49 52 54 54 56 59 62 64 66 66 69 72 76 81 86
Wind_Direction_500mb
277 282 316 335 54 68 258 249 214 135 233 136 122 143 180 93 159 196 143 153 158 157 154 154 137 126 116 120 121 122 121 103 104 113 119 124 92 71 72 88 92 93 92 94 98 88 89 92 99
237 259 264 103 87 76 263 249 209 187 155 120 105 98 43 76 119 145 145 151 156 157 158 151 147 144 135 131 127 131 132 136 138 123 135 132 110 82 80 99 102 99 98 100 106 101 88 94 97
207 229 212 91 104 171 210 198 194 130 147 107 112 103 114 135 155 154 149 152 158 160 156 149 147 149 142 140 132 135 134 139 141 136 155 139 113 101 94 107 112 107 102 102 107 96 90 92 96
192 184 68 89 211 242 206 166 154 125 199 232 140 68 98 138 162 161 153 157 159 160 158 158 150 147 142 139 138 137 129 126 132 140 147 128 98 91 93 102 114 119 109 103 111 95 95 95 103
196 133 66 84 276 292 259 179 145 123 175 123 140 161 80 131 158 162 159 159 163 166 164 166 164 158 152 144 147 142 131 124 121 123 113 77 84 85 87 94 119 124 114 102 109 109 107 114 121
128 90 66 189 273 321 80 157 150 124 170 146 130 141 145 161 164 165 166 163 165 169 173 176 174 173 167 160 158 156 143 130 119 108 99 87 89 96 104 107 120 134 102 122 138 128 126 112 112
127 82 167 165 199 348 160 157 157 162 165 196 156 134 177 169 162 172 172 174 174 181 182 182 180 182 180 176 170 164 150 139 125 116 109 99 109 110 115 122 133 140 122 133 144 143 130 124 116
133 91 103 156 183 233 174 164 204 175 187 176 168 214 199 176 167 173 177 184 187 188 192 193 190 191 191 193 187 168 171 165 156 148 131 119 117 113 118 128 140 138 149 140 124 139 124 133 157
131 68 154 187 165 206 158 163 158 181 154 174 197 236 232 178 173 178 183 188 195 198 200 202 202 201 201 205 200 188 187 188 180 175 166 150 132 120 118 122 139 129 169 135 140 143 152 169 160
98 106 202 188 204 194 170 172 167 170 163 212 226 224 213 184 185 185 190 194 198 201 203 208 210 210 210 213 214 209 205 205 202 200 198 195 180 177 169 158 161 162 205 121 129 112 147 189 191
129 163 184 187 221 172 158 155 169 163 212 221 223 222 203 186 195 198 201 204 203 203 206 210 213 217 220 222 223 224 220 218 219 220 221 224 222 219 213 213 215 215 230 216 172 124 193 242 264
104 133 158 145 157 149 151 142 203 212 208 239 258 233 222 201 205 207 208 210 213 212 213 214 215 220 224 228 230 232 229 226 226 228 229 237 242 236 231 230 227 231 224 202 188 209 259 294 290
110 157 136 135 131 113 140 150 251 255 246 250 266 218 219 221 220 222 222 220 220 221 221 220 223 227 229 232 234 236 238 238 239 239 241 243 243 242 237 238 231 235 226 207 195 174 334 318 294
147 116 118 127 129 91 173 234 313 257 274 233 232 233 219 225 230 225 226 227 228 230 228 228 230 232 235 239 239 242 244 244 245 246 246 245 245 244 242 249 241 240 238 225 223 226 241 281 277
110 96 53 215 209 75 215 291 229 247 277 244 230 233 228 229 231 237 243 241 239 241 239 235 236 238 240 243 246 249 252 250 247 249 249 249 249 248 245 245 256 253 254 240 254 266 269 270 273
75 49 125 213 151 147 128 267 290 260 226 242 246 244 245 242 244 245 242 243 244 244 244 243 242 242 244 246 247 251 256 256 254 249 252 250 251 251 249 249 250 253 253 252 249 254 265 272 270
29 175 220 339 188 111 146 274 290 171 309 302 276 252 251 252 249 248 247 247 247 249 248 247 246 246 247 248 249 251 258 259 262 262 256 254 255 253 255 250 252 252 255 255 251 256 259 255 261
168 173 234 207 192 102 111 268 290 273 284 290 286 268 266 260 258 261 259 255 253 250 249 250 250 250 250 251 250 251 252 257 258 261 263 260 256 256 254 256 256 253 254 257 258 256 258 261 262
129 125 159 196 346 153 226 263 277 288 283 279 278 282 282 278 281 275 260 250 249 250 252 251 252 250 247 247 247 247 249 252 255 258 262 265 264 261 259 261 259 256 258 261 262 258 258 259 257
125 132 186 91 55 125 7 288 270 277 274 286 298 300 313 310 300 295 275 243 243 247 248 250 250 252 252 250 252 251 254 256 259 261 263 265 267 266 264 262 262 263 262 260 263 261 264 264 258
121 151 181 144 69 66 335 311 329 298 337 347 342 317 359 354 18 55 64 95 228 236 243 247 250 249 252 253 252 253 253 256 258 258 260 262 264 266 266 265 265 265 264 262 264 264 263 262 261
172 190 134 127 87 210 15 284 304 330 335 33 36 57 60 61 65 73 70 66 58 48 299 258 254 252 253 252 253 255 257 258 264 266 268 267 267 268 267 268 267 266 265 267 269 268 269 262 261
179 123 116 96 94 78 339 82 272 8 38 2 16 54 62 66 71 70 68 64 58 53 48 45 28 294 267 259 257 257 259 263 266 268 270 271 272 272 270 271 273 273 273 272 270 270 268 266 261
155 79 50 58 92 30 260 149 283 110 73 14 30 55 67 78 80 79 77 74 69 65 60 54 48 42 25 340 288 272 266 266 268 270 272 275 276 276 274 271 272 273 273 271 271 270 270 272 268
86 90 19 9 19 212 2 90 237 272 91 117 58 68 78 73 71 68 64 63 62 60 58 56 52 48 42 33 10 324 292 275 273 273 274 275 277 277 278 277 273 270 271 271 271 272 273 273 272
174 162 156 191 186 205 76 223 257 350 97 94 91 83 80 72 66 60 55 51 51 45 43 41 39 39 36 32 25 8 336 308 293 286 282 279 278 279 278 277 273 271 271 270 268 268 269 269 270
187 182 161 105 28 62 216 275 21 6 55 77 81 70 67 67 62 59 53 41 33 26 20 14 17 17 14 16 14 11 1 345 322 301 290 288 287 287 283 278 275 271 268 266 265 263 265 267 269
161 158 81 3 131 216 273 283 191 183 137 96 61 63 62 59 64 59 44 33 24 13 13 11 12 8 6 2 355 350 347 343 334 325 315 306 304 298 292 286 282 277 273 270 268 266 265 265 267
130 168 58 116 147 162 157 248 185 161 163 114 76 63 63 57 53 42 35 30 31 29 24 22 15 8 2 358 353 344 337 332 329 324 315 307 303 301 299 297 292 287 282 277 273 271 271 269 269
179 181 153 145 213 262 142 262 152 152 137 122 109 94 91 85 61 45 39 39 33 31 29 27 25 17 15 9 2 353 342 334 327 322 318 312 307 301 298 296 295 294 293 291 287 283 278 274 273
Wind_Speed_850mb
14 9 9 6 8 10 1 6 1 5 1 3 12 7 9 5 7 6 27 30 49 47 41 26 23 20 18 18 18 17 16 16 18 24 19 16 13 13 16 20 22 24 29 30 33 31 32 31 32
10 6 6 6 9 6 9 6 8 9 9 29 21 14 5 1 7 21 42 37 51 45 33 36 32 22 17 17 19 19 21 23 27 25 19 13 12 12 15 20 23 25 33 34 30 27 28 30 29
10 10 4 8 7 8 9 8 9 7 32 5 7 7 7 3 8 41 35 51 53 41 42 36 29 23 21 20 21 20 22 24 29 28 18 12 13 10 14 18 25 27 27 31 28 28 27 30 35
11 7 10 8 5 5 6 7 11 13 8 2 9 8 7 1 20 30 45 52 51 45 40 36 28 21 20 19 19 18 19 21 21 22 14 9 10 11 13 14 20 24 22 27 26 23 29 31 29
14 4 8 6 4 5 4 5 23 7 2 5 4 7 4 18 26 28 48 51 51 45 42 35 27 22 19 18 17 17 18 19 19 14 9 9 11 12 12 10 12 16 15 29 20 25 23 28 27
5 5 9 2 5 8 4 13 13 8 4 8 3 11 10 20 29 39 47 47 45 42 38 34 31 26 21 19 18 18 18 17 17 17 13 11 11 11 10 10 9 7 13 24 20 15 14 14 18
10 8 9 8 3 3 7 19 8 10 9 8 9 8 8 26 29 40 45 43 40 37 35 34 32 30 24 19 16 17 16 15 14 14 12 10 9 10 9 9 9 7 9 20 14 12 12 11 11
7 10 6 4 7 7 13 20 5 14 10 8 14 5 5 34 34 41 42 43 40 38 35 34 33 32 27 23 19 17 16 14 13 12 10 9 8 9 9 9 8 7 9 14 9 9 7 6 4
7 9 4 10 12 5 17 9 11 7 11 12 17 10 5 40 39 44 46 47 44 43 38 36 35 33 30 27 22 20 19 18 16 13 11 8 6 7 7 7 6 7 6 6 7 5 5 4 4
8 8 15 8 7 8 20 7 19 10 8 12 14 17 12 39 45 49 54 53 51 51 46 43 40 37 35 32 28 24 22 19 17 14 10 7 5 4 5 6 5 5 4 2 3 3 3 2 2
6 10 9 6 4 13 19 6 12 12 5 20 25 23 20 40 45 47 50 52 52 50 49 47 44 40 38 37 33 32 27 23 21 20 16 14 12 9 7 6 6 6 3 1 1 1 2 3 4
8 6 11 10 6 9 15 10 8 20 12 4 15 19 25 36 41 44 47 49 48 49 48 44 43 41 41 42 41 38 35 31 29 25 23 20 16 15 14 13 11 9 5 5 3 2 2 4 6
5 7 10 9 5 8 7 4 8 20 23 17 10 21 30 33 35 37 38 42 44 47 45 44 42 42 43 46 46 44 41 36 32 31 30 28 25 22 21 18 17 14 11 9 7 2 2 5 7
9 11 8 7 2 3 3 2 0 6 7 26 22 16 31 34 33 37 42 45 47 46 49 46 45 42 40 41 46 48 46 41 41 40 38 35 31 29 27 21 23 20 16 15 15 14 11 11 14
16 9 5 1 2 2 2 8 14 17 14 9 27 23 27 33 41 44 37 40 45 46 49 51 52 50 48 44 40 45 48 48 47 47 44 42 38 35 34 30 24 26 24 22 19 19 19 20 23
11 10 6 1 9 1 5 15 5 6 6 12 17 22 34 35 40 43 45 47 46 51 54 54 56 58 58 55 50 46 45 47 45 42 42 42 42 42 42 39 36 35 34 35 35 31 29 29 32
13 6 7 3 7 4 4 11 6 8 2 11 10 16 25 31 38 38 41 45 50 51 53 56 61 62 63 63 61 57 52 51 51 49 46 46 46 47 48 46 45 45 44 46 48 46 43 41 39
10 6 5 5 4 4 2 17 15 21 25 32 29 23 28 33 38 32 39 43 47 53 56 57 60 65 66 66 70 67 65 63 62 62 60 55 54 54 55 54 52 51 54 53 54 57 58 55 52
14 9 7 3 1 6 10 12 22 42 32 39 42 38 39 44 43 42 46 46 48 48 56 60 60 61 68 72 74 79 77 72 71 70 69 68 64 62 63 62 61 60 59 60 60 65 69 68 66
10 9 5 3 6 3 9 18 18 27 29 32 39 36 25 24 29 22 18 35 46 43 45 51 57 61 64 70 73 79 78 79 74 73 73 73 71 71 69 69 69 67 69 66 66 72 73 74 75
4 10 7 5 4 7 10 14 12 7 10 24 17 17 16 19 15 10 6 2 10 30 38 41 44 55 65 69 75 80 84 85 83 82 81 81 79 78 77 76 73 74 75 80 77 77 80 81 79
9 11 9 11 7 4 7 8 12 9 16 15 32 31 31 32 31 29 27 27 25 17 6 21 33 40 47 60 75 79 82 85 78 79 79 82 83 83 83 82 81 79 77 77 78 79 84 90 88
7 8 11 7 10 7 7 5 14 10 9 13 26 34 40 42 44 43 39 36 33 28 23 20 11 9 22 37 50 64 75 81 82 82 81 79 78 77 81 81 79 81 79 81 82 84 89 92 93
18 13 14 10 7 2 5 8 11 2 6 5 14 35 44 57 64 66 62 58 59 54 49 41 32 22 15 11 17 32 45 56 67 74 78 78 77 75 71 69 73 78 81 84 89 89 92 90 91
8 11 4 5 5 9 2 4 13 7 3 5 11 31 40 48 57 58 54 51 49 50 50 51 50 46 38 26 17 17 23 33 45 53 61 66 69 72 71 67 68 75 78 78 80 85 88 91 95
11 12 10 13 8 5 5 11 8 4 7 18 28 42 46 46 45 44 44 42 42 39 37 38 39 38 37 37 34 27 23 28 35 42 48 54 59 61 60 62 63 66 70 74 78 87 86 89 93
10 8 9 14 6 7 7 8 3 4 11 22 28 36 38 37 36 36 35 35 35 35 36 37 34 32 32 30 30 29 26 23 24 28 36 42 45 49 51 53 57 59 63 67 71 80 88 92 95
8 16 8 5 7 6 6 10 11 9 9 4 17 24 27 29 31 30 26 26 28 28 28 27 30 32 31 30 30 32 32 31 27 24 23 28 32 37 41 45 50 53 57 61 67 73 79 86 92
6 5 9 9 8 10 6 11 14 22 14 13 15 18 19 20 22 24 25 27 28 26 25 24 24 25 27 29 32 33 34 36 38 39 40 42 43 44 46 48 50 53 56 59 64 72 77 84 87
2 12 13 10 9 2 6 8 15 19 22 19 14 13 16 18 17 18 20 24 28 31 31 33 32 34 38 39 39 40 41 43 45 47 49 52 54 54 56 59 62 64 66 66 69 72 76 81 86
Wind_Direction_850mb
277 282 316 335 54 68 258 249 214 135 233 136 122 143 180 93 159 196 143 153 158 157 154 154 137 126 116 120 121 122 121 103 104 113 119 124 92 71 72 88 92 93 92 94 98 88 89 92 99
237 259 264 103 87 76 263 249 209 187 155 120 105 98 43 76 119 145 145 151 156 157 158 151 147 144 135 131 127 131 132 136 138 123 135 132 110 82 80 99 102 99 98 100 106 101 88 94 97
207 229 212 91 104 171 210 198 194 130 147 107 112 103 114 135 155 154 149 152 158 160 156 149 147 149 142 140 132 135 134 139 141 136 155 139 113 101 94 107 112 107 102 102 107 96 90 92 96
192 184 68 89 211 242 206 166 154 125 199 232 140 68 98 138 162 161 153 157 159 160 158 158 150 147 142 139 138 137 129 126 132 140 147 128 98 91 93 102 114 119 109 103 111 95 95 95 103
196 133 66 84 276 292 259 179 145 123 175 123 140 161 80 131 158 162 159 159 163 166 164 166 164 158 152 144 147 142 131 124 121 123 113 77 84 85 87 94 119 124 114 102 109 109 107 114 121
128 90 66 189 273 321 80 157 150 124 170 146 130 141 145 161 164 165 166 163 165 169 173 176 174 173 167 160 158 156 143 130 119 108 99 87 89 96 104 107 120 134 102 122 138 128 126 112 112
127 82 167 165 199 348 160 157 157 162 165 196 156 134 177 169 162 172 172 174 174 181 182 182 180 182 180 176 170 164 150 139 125 116 109 99 109 110 115 122 133 140 122 133 144 143 130 124 116
133 91 103 156 183 233 174 164 204 175 187 176 168 214 199 176 167 173 177 184 187 188 192 193 190 191 191 193 187 168 171 165 156 148 131 119 117 113 118 128 140 138 149 140 124 139 124 133 157
131 68 154 187 165 206 158 163 158 181 154 174 197 236 232 178 173 178 183 188 195 198 200 202 202 201 201 205 200 188 187 188 180 175 166 150 132 120 118 122 139 129 169 135 140 143 152 169 160
98 106 202 188 204 194 170 172 167 170 163 212 226 224 213 184 185 185 190 194 198 201 203 208 210 210 210 213 214 209 205 205 202 200 198 195 180 177 169 158 161 162 205 121 129 112 147 189 191
129 163 184 187 221 172 158 155 169 163 212 221 223 222 203 186 195 198 201 204 203 203 206 210 213 217 220 222 223 224 220 218 219 220 221 224 222 219 213 213 215 215 230 216 172 124 193 242 264
104 133 158 145 157 149 151 142 203 212 208 239 258 233 222 201 205 207 208 210 213 212 213 214 215 220 224 228 230 232 229 226 226 228 229 237 242 236 231 230 227 231 224 202 188 209 259 294 290
110 157 136 135 131 113 140 150 251 255 246 250 266 218 219 221 220 222 222 220 220 221 221 220 223 227 229 232 234 236 238 238 239 239 241 243 243 242 237 238 231 235 226 207 195 174 334 318 294
147 116 118 127 129 91 173 234 313 257 274 233 232 233 219 225 230 225 226 227 228 230 228 228 230 232 235 239 239 242 244 244 245 246 246 245 245 244 242 249 241 240 238 225 223 226 241 281 277
110 96 53 215 209 75 215 291 229 247 277 244 230 233 228 229 231 237 243 241 239 241 239 235 236 238 240 243 246 249 252 250 247 249 249 249 249 248 245 245 256 253 254 240 254 266 269 270 273
75 49 125 213 151 147 128 267 290 260 226 242 246 244 245 242 244 245 242 243 244 244 244 243 242 242 244 246 247 251 256 256 254 249 252 250 251 251 249 249 250 253 253 252 249 254 265 272 270
29 175 220 339 188 111 146 274 290 171 309 302 276 252 251 252 249 248 247 247 247 249 248 247 246 246 247 248 249 251 258 259 262 262 256 254 255 253 255 250 252 252 255 255 251 256 259 255 261
168 173 234 207 192 102 111 268 290 273 284 290 286 268 266 260 258 261 259 255 253 250 249 250 250 250 250 251 250 251 252 257 258 261 263 260 256 256 254 256 256 253 254 257 258 256 258 261 262
129 125 159 196 346 153 226 263 277 288 283 279 278 282 282 278 281 275 260 250 249 250 252 251 252 250 247 247 247 247 249 252 255 258 262 265 264 261 259 261 259 256 258 261 262 258 258 259 257
125 132 186 91 55 125 7 288 270 277 274 286 298 300 313 310 300 295 275 243 243 247 248 250 250 252 252 250 252 251 254 256 259 261 263 265 267 266 264 262 262 263 262 260 263 261 264 264 258
121 151 181 144 69 66 335 311 329 298 337 347 342 317 359 354 18 55 64 95 228 236 243 247 250 249 252 253 252 253 253 256 258 258 260 262 264 266 266 265 265 265 264 262 264 264 263 262 261
172 190 134 127 87 210 15 284 304 330 335 33 36 57 60 61 65 73 70 66 58 48 299 258 254 252 253 252 253 255 257 258 264 266 268 267 267 268 267 268 267 266 265 267 269 268 269 262 261
179 123 116 96 94 78 339 82 272 8 38 2 16 54 62 66 71 70 68 64 58 53 48 45 28 294 267 259 257 257 259 263 266 268 270 271 272 272 270 271 273 273 273 272 270 270 268 266 261
155 79 50 58 92 30 260 149 283 110 73 14 30 55 67 78 80 79 77 74 69 65 60 54 48 42 25 340 288 272 266 266 268 270 272 275 276 276 274 271 272 273 273 271 271 270 270 272 268
86 90 19 9 19 212 2 90 237 272 91 117 58 68 78 73 71 68 64 63 62 60 58 56 52 48 42 33 10 324 292 275 273 273 274 275 277 277 278 277 273 270 271 271 271 272 273 273 272
174 162 156 191 186 205 76 223 257 350 97 94 91 83 80 72 66 60 55 51 51 45 43 41 39 39 36 32 25 8 336 308 293 286 282 279 278 279 278 277 273 271 271 270 268 268 269 269 270
187 182 161 105 28 62 216 275 21 6 55 77 81 70 67 67 62 59 53 41 33 26 20 14 17 17 14 16 14 11 1 345 322 301 290 288 287 287 283 278 275 271 268 266 265 263 265 267 269
161 158 81 3 131 216 273 283 191 183 137 96 61 63 62 59 64 59 44 33 24 13 13 11 12 8 6 2 355 350 347 343 334 325 315 306 304 298 292 286 282 277 273 270 268 266 265 265 267
130 168 58 116 147 162 157 248 185 161 163 114 76 63 63 57 53 42 35 30 31 29 24 22 15 8 2 358 353 344 337 332 329 324 315 307 303 301 299 297 292 287 282 277 273 271 271 269 269
179 181 153 145 213 262 142 262 152 152 137 122 109 94 91 85 61 45 39 39 33 31 29 27 25 17 15 9 2 353 342 334 327 322 318 312 307 301 298 296 295 294 293 291 287 283 278 274 273